YZ-1 R/B, 43605

Orbit data source: Space-Track

YZ-1 R/B, 43605 is space debris originally from a launch on Fri, 24 Aug 2018 UTC launched from the Xichang Space Center, China (XSC). Debris objects in space refer to the collection of defunct objects orbiting the Earth. Examples of debris include non-operational satellites, rocket bodies, and fragments generated from explosions, collisions, or faulty payload assembly.

Loading next visibility...
Identifier
43605, 2018-067D
Orbit
Active
Country
Flag of CNCN / PRC
Related business
Manufacturer
CALT
Mission
Spacecraft
Bus & Motor
YZ-1, Unknown motor
Mass
~2,075 kg wet, ~2,075 kg dry
Launch date (UTC)
2018-08-24 (7 years ago)
Launch vehicle
Unknown
Launch site
Xichang Space Center, China (XSC)
Object type
Payload
Rocket body
Debris
Shape & HBR
Double Cone, 2.0 m
Radar Cross Section
5.890 m², Large (>1 m²)

Expand to show TLE details & history
Last TLE update: 3 weeks ago

TLE from 3 weeks ago
0 YZ-1 R/B
1 43605U 18067D   25273.48763577  .00000007  00000-0  00000-0 0  9993
2 43605  53.8166 196.4983 0052795  45.3368 315.1070  1.78798175 46365
Epoch: 2025-09-30T11:42Z
TLE epoch observation values (Epoch: 2025-09-30T11:42:11.730Z)
Latitude
-0.00001°
Longitude
11.46711°
Altitude
22,189.571 km
Speed
3.742 km/s
True Right ascension
13h 05m 58s
True Declination
0° 00' 00"
Sunlit
Object was in daylight at epoch
Visualization orbit readout
Latitude
Unknown
Longitude
Unknown
Altitude
Unknown
Speed
Unknown
Apparent Right ascension
Unknown
Apparent Declination
Unknown
Sunlit
N/A
Visualization observer readout
Local Sidereal Time
13:40:56
Azimuth
Unknown
Elevation
Unknown
Doppler factor
Unknown
Orbital elements
Apogee altitude
22,447.621 km
Perigee altitude
22,144.849 km
Semi-major axis
28,674.372 km
Eccentricity
0.00528
Inclination
53.8166°
RAAN
196.4983°
Arg. of periapsis
45.3368°
True anomaly
314.67801°
Mean anomaly
315.107°
Eccentric anomaly
314.8927°
Mean motion
0.44699 °/min
Orbital period
805.38 mins
BSTAR
0
Loading maneuver chart data...
Computing Atmospheric mass density...
Loading historical data...
Loading historical data...
Loading historical data...
Loading historical data...
Loading historical data...
Loading historical data...
Loading historical data...
Other satellites on launch #67 in the year 2018 (2018-08-24 UTC)

Documentation

Showing up to 5 results
|